Orbital Elements at Epoch 2459200.5 (2020-Dec-17.0) TDB
Reference: JPL 17 (heliocentric ecliptic J2000)
Element | Value | Uncertainty (1-sigma) | Units |
e | .229699302926543 | 5.2671e-08 | |
a | 2.419161767862738 | 5.1257e-09 | au |
q | 1.863481996118123 | 1.2831e-07 | au |
i | 3.438215765021178 | 4.5148e-06 | deg |
node | 147.4972893153096 | 6.5253e-05 | deg |
peri | 223.1831038070491 | 6.5805e-05 | deg |
M | 16.57339037912711 | 6.5165e-06 | deg |
tp | 2459137.229006824151 (2020-Oct-14.72900682) | 2.4857e-05 | TDB |
period | 1374.345081015672 3.76 | 4.368e-06 1.196e-08 | d yr |
n | .2619429464788799 | 8.3251e-10 | deg/d |
Q | 2.974841539607353 | 6.3031e-09 | au |
|
| | Orbit Determination Parameters
Additional Information
|